FENGYUN 1C DEB, 35175

Orbit data source: Space-Track

FENGYUN 1C DEB, 35175 is space debris in SSO originally from a launch on Mon, 10 May 1999 UTC launched from the Taiyaun Space Center, China (TSC). Fengyun 1C debris stems from the Chinese weather satellite Fengyun-1C, which was intentionally destroyed by a Chinese anti-satellite missile in 2007. This event dramatically increased the amount of space debris, with thousands of trackable fragments posing hazards to satellites and human spaceflight. The Fengyun 1C debris cloud has become a focal point in discussions about space sustainability and the need for international regulations to prevent the creation of new debris.

Loading next visibility...
Identifier
35175, 1999-025DNF
Orbit
SSO
Country
Flag of CNCN / PRC
Related business
Manufacturer
Unknown
Mission
Spacecraft
Bus & Motor
Unknown
Mass
Unknown
Launch date (UTC)
1999-05-10 (27 years ago)
Launch vehicle
Unknown
Launch site
Taiyaun Space Center, China (TSC)
Object type
Payload
Rocket body
Debris
Shape & HBR
Unknown shape, 0.1 m
Radar Cross Section
Small (<0.1 m²)

Expand to show TLE details & history
Last TLE update: 3 days ago

TLE from 3 days ago
0 FENGYUN 1C DEB
1 35175U 99025DNF 26169.82295097  .00000490  00000-0  23825-3 0  9998
2 35175  98.5706 177.7935 0059383  94.5237 266.2728 14.21597169639078
Epoch: 2026-06-18T19:45Z
TLE epoch observation values (Epoch: 2026-06-18T19:45:02.963Z)
Latitude
Longitude
-25.5296°
Altitude
825.91 km
Speed
7.439 km/s
True Right ascension
11h 51m 10s
True Declination
0° 00' 00"
Sunlit
Object was in daylight at epoch
Visualization orbit readout
Latitude
Unknown
Longitude
Unknown
Altitude
Unknown
Speed
Unknown
Apparent Right ascension
Unknown
Apparent Declination
Unknown
Sunlit
N/A
Visualization observer readout
Local Sidereal Time
22:47:05
Azimuth
Unknown
Elevation
Unknown
Doppler factor
Unknown
Orbital elements
Apogee altitude
859.834 km
Perigee altitude
774.379 km
Semi-major axis
7,195.243 km
Eccentricity
0.00594
Inclination
98.5706°
RAAN
177.7935°
Arg. of periapsis
94.5237°
True anomaly
265.5941°
Mean anomaly
266.2728°
Eccentric anomaly
265.93342°
Mean motion
3.55611 °/min
Orbital period
101.23 mins
BSTAR
0.00023825
Loading maneuver chart data...
Computing Atmospheric mass density...

Documentation

Showing up to 5 results
|